{"data":{"norad_id":49011,"intl_designator":"2021-063A","name":"TIANLIAN 1-05","alt_names":[],"object_type":"PAYLOAD","status":"ACTIVE","operator":null,"country":"PRC","launch_date":"2021-07-06","launch_site_code":"XICLF","launch_vehicle":null,"mission":null,"orbit_class":"UNKNOWN","rcs_meters":null,"size_class":null,"mass_kg":null,"dimensions":null,"purposes":["comms"],"wikipedia_slug":null,"has_3d_model":false,"image_url":null,"decayed_at":null,"tle_current":{"epoch":"2026-05-25T03:49:24.302784Z","epoch_age_seconds":64575,"freshness":"FRESH","line1":"1 49011U 21063A   26145.15930906  .00000106  00000+0  00000+0 0  9993","line2":"2 49011   1.5367  80.8797 0001493 290.5585 305.4325  1.00273095 17848","mean_motion":1.00273095,"eccentricity":0.0001493,"inclination_deg":1.5367,"raan_deg":80.8797,"arg_perigee_deg":290.5585,"mean_anomaly_deg":305.4325,"bstar":0,"rev_number":1784,"period_min":1436.078142397,"perigee_km":35779.932584981,"apogee_km":35792.522864288,"semimajor_km":42164.364724634,"source":"CELESTRAK","updated_at":"2026-05-25T13:38:14.100334Z"}}}